• în România
  • Lista ţărilor
  • Pe 7 zile
  • Temperatura apei
  • Hartă satelitară
  • Meteo pe hartă
  • Widget-uri
  • user-avatar
    Intrare

    Meteo pe oră la Hobart

    Astăzi, 27 Aprilie, Joi

    Timp Temperatura Precipitaţii Vânt Presiune Umiditate
    00:00 +4°C° 0 mm 4 m/s 749 mmHg 82%
    01:00 +3°C° 0 mm 4 m/s 749 mmHg 82%
    02:00 +3°C° 0 mm 4 m/s 749 mmHg 83%
    03:00 +1°C° 0 mm 4 m/s 749 mmHg 84%
    04:00 +2°C° 0 mm 3 m/s 750 mmHg 87%
    05:00 +2°C° 0 mm 3 m/s 750 mmHg 87%
    06:00 +2°C° 0 mm 3 m/s 750 mmHg 87%
    07:00 +2°C° 0 mm 3 m/s 750 mmHg 87%
    08:00 +4°C° 0 mm 4 m/s 750 mmHg 78%
    09:00 +6°C° 0 mm 4 m/s 750 mmHg 69%
    10:00 +8°C° 0 mm 4 m/s 750 mmHg 60%
    11:00 +10°C° 0 mm 4 m/s 750 mmHg 59%
    12:00 +10°C° 0 mm 5 m/s 749 mmHg 58%
    13:00 +10°C° 0 mm 5 m/s 749 mmHg 57%
    14:00 +10°C° 0 mm 5 m/s 748 mmHg 61%
    15:00 +10°C° 0 mm 5 m/s 748 mmHg 65%
    16:00 +10°C° 0 mm 5 m/s 748 mmHg 69%
    17:00 +10°C° 0 mm 5 m/s 747 mmHg 76%
    18:00 +9°C° 0 mm 5 m/s 747 mmHg 83%
    19:00 +8°C° 0 mm 5 m/s 747 mmHg 90%
    20:00 +8°C° 0 mm 5 m/s 747 mmHg 91%
    21:00 +9°C° 0 mm 5 m/s 747 mmHg 92%
    22:00 +10°C° 0 mm 5 m/s 747 mmHg 93%
    23:00 +9°C° 0 mm 5 m/s 747 mmHg 94%

    Mâine, 28 Aprilie, Vineri

    Timp Temperatura Precipitaţii Vânt Presiune Umiditate
    00:00 +9°C° 0 mm 5 m/s 747 mmHg 94%
    01:00 +9°C° 0 mm 5 m/s 747 mmHg 95%
    02:00 +10°C° 0 mm 4 m/s 747 mmHg 95%
    03:00 +8°C° 0 mm 4 m/s 747 mmHg 95%
    04:00 +8°C° 0 mm 4 m/s 747 mmHg 95%
    05:00 +8°C° 0 mm 4 m/s 747 mmHg 95%
    06:00 +8°C° 0 mm 4 m/s 748 mmHg 94%
    07:00 +8°C° 0 mm 4 m/s 748 mmHg 94%
    08:00 +10°C° 0 mm 4 m/s 748 mmHg 86%
    09:00 +12°C° 0 mm 4 m/s 748 mmHg 78%
    10:00 +13°C° 0 mm 4 m/s 748 mmHg 71%
    11:00 +14°C° 0 mm 5 m/s 748 mmHg 68%
    12:00 +15°C° 0 mm 5 m/s 747 mmHg 65%
    13:00 +16°C° 0 mm 5 m/s 747 mmHg 62%
    14:00 +15°C° 0 mm 6 m/s 746 mmHg 67%
    15:00 +14°C° 0 mm 6 m/s 746 mmHg 72%
    16:00 +13°C° 0 mm 6 m/s 746 mmHg 77%
    17:00 +13°C° 0 mm 6 m/s 746 mmHg 79%
    18:00 +13°C° 0 mm 6 m/s 746 mmHg 81%
    19:00 +13°C° 0 mm 6 m/s 746 mmHg 82%
    20:00 +13°C° 0 mm 6 m/s 746 mmHg 84%
    21:00 +13°C° 0 mm 6 m/s 745 mmHg 85%
    22:00 +13°C° 0 mm 5 m/s 745 mmHg 87%
    23:00 +13°C° 0,1 mm 6 m/s 745 mmHg 86%

    Poimâine, 29 Aprilie, Sâmbătă

    Timp Temperatura Precipitaţii Vânt Presiune Umiditate
    00:00 +13°C° 0,1 mm 6 m/s 745 mmHg 86%
    01:00 +12°C° 0,1 mm 7 m/s 745 mmHg 85%
    02:00 +11°C° 0,1 mm 7 m/s 745 mmHg 85%
    03:00 +11°C° 0,1 mm 8 m/s 746 mmHg 84%
    04:00 +11°C° 0,1 mm 8 m/s 746 mmHg 84%
    05:00 +10°C° 0 mm 8 m/s 746 mmHg 84%
    06:00 +10°C° 0 mm 7 m/s 747 mmHg 83%
    07:00 +9°C° 0 mm 7 m/s 748 mmHg 83%
    08:00 +10°C° 0 mm 7 m/s 748 mmHg 79%
    09:00 +11°C° 0 mm 7 m/s 749 mmHg 76%
    10:00 +11°C° 0 mm 7 m/s 749 mmHg 72%
    11:00 +12°C° 0 mm 7 m/s 750 mmHg 70%
    12:00 +12°C° 0 mm 7 m/s 750 mmHg 68%
    13:00 +13°C° 0 mm 6 m/s 750 mmHg 66%
    14:00 +13°C° 0 mm 6 m/s 751 mmHg 67%
    15:00 +13°C° 0 mm 5 m/s 751 mmHg 67%
    16:00 +13°C° 0 mm 5 m/s 752 mmHg 67%
    17:00 +11°C° 0 mm 4 m/s 752 mmHg 76%
    18:00 +10°C° 0 mm 4 m/s 752 mmHg 85%
    19:00 +8°C° 0 mm 3 m/s 753 mmHg 93%
    20:00 +7°C° 0 mm 3 m/s 753 mmHg 94%
    21:00 +7°C° 0 mm 2 m/s 753 mmHg 95%
    22:00 +6°C° 0 mm 2 m/s 753 mmHg 96%
    23:00 +6°C° 0 mm 2 m/s 753 mmHg 95%

    30 Aprilie, Duminică

    Timp Temperatura Precipitaţii Vânt Presiune Umiditate
    00:00 +6°C° 0 mm 2 m/s 753 mmHg 95%
    01:00 +6°C° 0 mm 2 m/s 753 mmHg 95%
    02:00 +5°C° 0 mm 2 m/s 753 mmHg 95%
    03:00 +5°C° 0 mm 2 m/s 753 mmHg 94%
    04:00 +5°C° 0 mm 2 m/s 752 mmHg 94%
    05:00 +5°C° 0 mm 2 m/s 752 mmHg 94%
    06:00 +5°C° 0 mm 2 m/s 752 mmHg 93%
    07:00 +5°C° 0 mm 2 m/s 752 mmHg 93%
    08:00 +7°C° 0 mm 2 m/s 752 mmHg 85%
    09:00 +10°C° 0 mm 2 m/s 752 mmHg 76%
    10:00 +13°C° 0 mm 2 m/s 751 mmHg 67%
    11:00 +15°C° 0 mm 2 m/s 751 mmHg 62%
    12:00 +16°C° 0 mm 2 m/s 750 mmHg 57%
    13:00 +17°C° 0 mm 2 m/s 750 mmHg 52%
    14:00 +17°C° 0 mm 2 m/s 749 mmHg 55%
    15:00 +16°C° 0 mm 2 m/s 749 mmHg 59%
    16:00 +16°C° 0 mm 2 m/s 748 mmHg 62%
    17:00 +14°C° 0 mm 2 m/s 748 mmHg 72%
    18:00 +10°C° 0 mm 2 m/s 748 mmHg 82%
    19:00 +8°C° 0 mm 2 m/s 748 mmHg 91%
    20:00 +8°C° 0 mm 2 m/s 748 mmHg 93%
    21:00 +8°C° 0 mm 2 m/s 747 mmHg 94%
    22:00 +7°C° 0 mm 2 m/s 747 mmHg 95%
    23:00 +7°C° 0 mm 3 m/s 746 mmHg 94%

    1 Mai, Luni

    Timp Temperatura Precipitaţii Vânt Presiune Umiditate
    00:00 +7°C° 0 mm 3 m/s 746 mmHg 93%
    01:00 +6°C° 0 mm 4 m/s 745 mmHg 92%
    02:00 +7°C° 0 mm 4 m/s 744 mmHg 92%
    03:00 +7°C° 0 mm 4 m/s 744 mmHg 92%
    04:00 +7°C° 0 mm 4 m/s 743 mmHg 92%
    05:00 +8°C° 0 mm 5 m/s 742 mmHg 91%
    06:00 +8°C° 0 mm 5 m/s 742 mmHg 90%
    07:00 +8°C° 0 mm 5 m/s 741 mmHg 90%
    08:00 +11°C° 0 mm 6 m/s 741 mmHg 82%
    09:00 +14°C° 0 mm 6 m/s 740 mmHg 74%
    10:00 +16°C° 0 mm 7 m/s 739 mmHg 66%
    11:00 +16°C° 0,1 mm 7 m/s 739 mmHg 67%
    12:00 +16°C° 0,1 mm 7 m/s 738 mmHg 67%
    13:00 +16°C° 0,1 mm 8 m/s 738 mmHg 68%
    14:00 +14°C° 0,7 mm 7 m/s 738 mmHg 75%
    15:00 +12°C° 0,7 mm 5 m/s 738 mmHg 83%
    16:00 +11°C° 0,7 mm 4 m/s 738 mmHg 90%
    17:00 +10°C° 0,1 mm 4 m/s 738 mmHg 92%
    18:00 +9°C° 0,1 mm 3 m/s 738 mmHg 93%
    19:00 +8°C° 0,1 mm 3 m/s 739 mmHg 94%
    20:00 +8°C° 0,2 mm 3 m/s 739 mmHg 94%
    21:00 +7°C° 0,2 mm 4 m/s 738 mmHg 93%
    22:00 +7°C° 0,2 mm 4 m/s 738 mmHg 93%
    23:00 +6°C° 0,2 mm 4 m/s 738 mmHg 92%

    2 Mai, Marţi

    Timp Temperatura Precipitaţii Vânt Presiune Umiditate
    00:00 +6°C° 0,2 mm 5 m/s 738 mmHg 92%
    01:00 +5°C° 0,2 mm 5 m/s 738 mmHg 91%
    02:00 +5°C° 0 mm 5 m/s 738 mmHg 91%
    03:00 +3°C° 0 mm 6 m/s 738 mmHg 91%
    04:00 +3°C° 0 mm 6 m/s 738 mmHg 91%
    05:00 +2°C° 0 mm 6 m/s 738 mmHg 91%
    06:00 +2°C° 0 mm 6 m/s 738 mmHg 91%
    07:00 +1°C° 0 mm 5 m/s 738 mmHg 92%
    08:00 +3°C° 0 mm 5 m/s 738 mmHg 85%
    09:00 +5°C° 0 mm 5 m/s 738 mmHg 78%
    10:00 +6°C° 0 mm 5 m/s 738 mmHg 72%
    11:00 +7°C° 0,1 mm 6 m/s 738 mmHg 66%
    12:00 +6°C° 0,1 mm 7 m/s 737 mmHg 61%
    13:00 +8°C° 0,1 mm 7 m/s 737 mmHg 55%
    14:00 +6°C° 0,1 mm 7 m/s 737 mmHg 58%
    15:00 +5°C° 0,1 mm 7 m/s 737 mmHg 61%
    16:00 +5°C° 0,1 mm 7 m/s 738 mmHg 64%
    17:00 +3°C° 0,1 mm 7 m/s 738 mmHg 70%
    18:00 +2°C° 0,1 mm 6 m/s 739 mmHg 76%
    19:00 +1°C° 0,1 mm 6 m/s 739 mmHg 82%
    20:00 +1°C° 0,4 mm 6 m/s 740 mmHg 83%
    21:00 +1°C° 0,4 mm 6 m/s 740 mmHg 84%
    22:00 +1°C° 0,4 mm 5 m/s 740 mmHg 85%
    23:00 +1°C° 0,5 mm 6 m/s 740 mmHg 86%
    Arată mai mult